Regional Weather Roundup
Issued by NWS Boston, MA

Home | Current Version | Previous Version | Text Only | Print | Product List | Glossary On
Versions: 1 2 3 4 5 6 7 8 9 10 11 12 13 14 15 16 17 18 19 20 21 22 23 24 25 26 27 28 29 30 31 32 33 34 35 36 37 38 39 40 41 42 43 44 45 46 47 48 49 50
000
ASUS41 KBOX 291410
RWRBOX

REGIONAL WEATHER ROUNDUP
NATIONAL WEATHER SERVICE TAUNTON MA
1000 AM EDT TUE JUL 29 2014

NOTE:  "FAIR" INDICATES FEW OR NO CLOUDS BELOW 12,000 FEET WITH NO
SIGNIFICANT WEATHER AND/OR OBSTRUCTIONS TO VISIBILITY.  THE FOLLOWING
OBSERVATION LOCATIONS DO NOT REPORT PRESENT WEATHER...PROVINCETOWN...
SMITHFIELD...BLOCK ISLAND...KEENE...AND OXFORD.

MAZALL-291500-
EASTERN MASSACHUSETTS

CITY           SKY/WX    TMP DP  RH WIND       PRES   REMARKS
BOSTON         MOSUNNY   71  54  54 W13       29.78R
BEVERLY        SUNNY     69  56  62 W13       29.77R
LAWRENCE       MOSUNNY   68  57  68 W13       29.80R
BEDFORD        MOSUNNY   69  57  65 NW9       29.78R
BLUE HILL        N/A     69  57  65 W8        29.79R
NORWOOD        SUNNY     72  56  57 VRB6      29.78R
MARSHFIELD     SUNNY     72  55  56 NW9       29.79R
PLYMOUTH       SUNNY     72  55  55 W10       29.79R
TAUNTON        SUNNY     71  58  63 VRB6      29.78S
NEW BEDFORD    SUNNY     72  60  66 W10       29.78S
$$

MAZALL-291500-
CAPE COD AND THE ISLANDS

CITY           SKY/WX    TMP DP  RH WIND       PRES   REMARKS
FALMOUTH       MOSUNNY   72  59  64 VRB6      29.79S
HYANNIS        MOSUNNY   73  59  61 W6        29.78R
CHATHAM        SUNNY     72  59  63 VRB5      29.80R
PROVINCETOWN   SUNNY     70  57  64 CALM      29.79R
NANTUCKET      MOSUNNY   71  61  70 W10       29.79R
MARTHAS VNYRD  MOSUNNY   71  61  70 VRB7      29.80R
$$

MAZALL-291500-
CENTRAL AND WESTERN MASSACHUSETTS

CITY           SKY/WX    TMP DP  RH WIND       PRES   REMARKS
WORCESTER      SUNNY     65  54  67 W14       29.81R
FITCHBURG      MOSUNNY   70  55  59 W12       29.80R
ORANGE         MOSUNNY   66  55  67 NW7       29.81R
SPRINGFIELD    MOSUNNY   68  56  65 NW6       29.81S
WESTFIELD      SUNNY     69  53  56 W9        29.82R
NORTH ADAMS    MOSUNNY   65  56  72 VRB5      29.84R
PITTSFIELD     SUNNY     62  54  74 W12       29.85R
$$

RIZALL-291500-
RHODE ISLAND

CITY           SKY/WX    TMP DP  RH WIND       PRES   REMARKS
PROVIDENCE     MOSUNNY   72  58  61 W7        29.80R
NEWPORT        SUNNY     69  59  70 NW6       29.80R
BLOCK ISLAND   SUNNY     70  57  64 W9        29.82R
WESTERLY       SUNNY     72  57  59 VRB6      29.81R
$$

CTZALL-291500-
CONNECTICUT

CITY           SKY/WX    TMP DP  RH WIND       PRES   REMARKS
BRADLEY INTL   MOSUNNY   70  54  56 W10       29.81R
HARTFORD       SUNNY     69  54  58 VRB5      29.82R
BRIDGEPORT     MOSUNNY   71  56  58 W12       29.84R
DANBURY        SUNNY     67  52  58 NW8       29.86R
GROTON         SUNNY     71  57  61 NW5       29.81R
NEW HAVEN      SUNNY     72  56  57 NW6       29.83R
CHESTER        FAIR      66  54  63 NW8       29.84R
MERIDEN        SUNNY     70  53  54 VRB6      29.83S
WILLIMANTIC    SUNNY     69  56  62 W8        29.82R
OXFORD         MOSUNNY   66  54  63 N10       29.86S
$$

MEZ002-015-021-024-NHZ003-005-008-011-012-014-VTZ005-008-291500-
NORTHERN NEW ENGLAND

CITY           SKY/WX    TMP DP  RH WIND       PRES   REMARKS
PORTLAND ME    MOSUNNY   69  59  70 NW8       29.74R
BANGOR ME      PTSUNNY   69  58  67 W10G18    29.68R
CONCORD NH     SUNNY     68  53  58 NW14      29.78R
MANCHESTER NH  MOSUNNY   68  51  54 NW14      29.76R
NASHUA NH      MOSUNNY   69  54  58 NW10      29.79R
PORTSMOUTH NH  MOSUNNY   70  56  63 W10       29.75R
JAFFREY NH     MOSUNNY   64  52  64 W9G17     29.82R
KEENE NH       PTSUNNY   66  48  52 W10       29.81S
BURLINGTON VT  MOSUNNY   65  52  62 NW7       29.81R
MT. WASHINGTON PTSUNNY   41  39  93 NW18        N/A
$$

NYZ052-076-291500-
EASTERN NEW YORK

CITY           SKY/WX    TMP DP  RH WIND       PRES   REMARKS
ALBANY         MOSUNNY   66  54  65 W8        29.85R
NEW YORK CITY  MOSUNNY   69  53  56 NW10      29.85S
$$

ANZALL-291500-
MARINE OBSERVATIONS

STATION/POSITION TIME  TEMP    WIND        PRES    VSBY  WAVE
                       AIR SEA DIR/SP/G                  HT/PER
                 (UTC) (F)     (DEG/KT/KT) (MB)    (MI)  (FT/S)
BOSTON BUOY      NOT AVBL
BUZZARDS BAY     NOT AVBL
NANTUCKET SOUND  NOT AVBL
MASS BAY-STELLWA NOT AVBL
ISLE OF SHOALS   NOT AVBL
S OF BLOCK IS    NOT AVBL
$$

......................KEY.........................
  SKY/WX - SKY CONDITION/PRESENT WEATHER
  TMP    - TEMPERATURE IN FAHRENHEIT
  DWPT   - DEWPOINT IN FAHRENHEIT
  RH     - RELATIVE HUMIDITY IN PERCENT
  WIND   - DIRECTION AND SPEED IN MPH
  PRES   - MEAN SEA LEVEL PRESSURE IN INCHES OF HG
  WCI    - WIND CHILL INDEX
  VSB    - VISIBILITY IN MILES
  HX     - HEAT INDEX
  TC     - TEMPERATURE IN CELSIUS
  VRB    - VARIABLE WIND DIRECTION
  N/A    - NOT AVAILABLE



USA.gov is the U.S. government's official web portal to all federal, state and local government web resources and services.